Location: Monfort
(47.1967°N, 0.2115°W)
Time: 11:45:49
(UTC+00:00)

Cosmos 1300 - Pass Details

Date: 24 October 2020
Orbit: 511 x 513 km, 82.5° (Epoch: 27 November)

Event Time Altitude Azimuth Distance (km) Brightness Sun altitude
Rises 18:24:10 0° 193° (SSW) 2,616 6.5 -15.5°
Reaches altitude 10° 18:26:18 10° 195° (SSW) 1,735 5.6 -15.8°
Maximum altitude 18:30:05 71° 280° (W) 550 2.9 -16.5°
Drops below altitude 10° 18:33:56 10° 5° (N) 1,751 5.3 -17.1°
Sets 18:36:05 0° 8° (N) 2,643 6.2 -17.5°
